Overview Statistics Trail Chart Weather Telemetry Raw packets
 

This is the latest recevied weather packets stored in our database for station/object 4S6DRJ-13. If no packets are shown the sender has not sent any weather packets the latest 10 day(s).

<< 14 15 16 17 18 19 20 >>
Time Temp. Humidity Pressure Rain* Wind** Luminosity Snow
1788422660 31.11° C 70% 1008 hPa 0 mm 0.89 m/s, 7° 1121 W/m² -
1788422599 31.11° C 69% 1008.1 hPa 0 mm 1.79 m/s, 306° 1121 W/m² -
1788422538 31.11° C 69% 1008.1 hPa 0 mm 4.02 m/s, 297° 1109 W/m² -
1788422478 31.11° C 68% 1008.2 hPa 0 mm 2.68 m/s, 279° 1123 W/m² -
1788422416 31.11° C 69% 1008.1 hPa 0 mm 3.13 m/s, 298° 1121 W/m² -
1788422355 31.11° C 70% 1008 hPa 0 mm 3.13 m/s, 229° 1121 W/m² -
1788422294 31.11° C 70% 1008.2 hPa 0 mm 2.24 m/s, 290° 1124 W/m² -
1788422233 31.11° C 70% 1008.2 hPa 0 mm 0.89 m/s, 161° 1126 W/m² -
1788422172 31.67° C 68% 1008.3 hPa 0 mm 1.79 m/s, 173° 264 W/m² -
1788422111 31.67° C 67% 1008.2 hPa 0 mm 2.68 m/s, 280° 269 W/m² -
1788422050 31.67° C 70% 1008.5 hPa 0 mm 2.24 m/s, 240° 1129 W/m² -
1788421989 31.67° C 69% 1008.1 hPa 0 mm 2.24 m/s, 231° 694 W/m² -
1788421928 31.67° C 70% 1008.3 hPa 0 mm 1.79 m/s, 176° 450 W/m² -
1788421867 31.67° C 69% 1008.2 hPa 0 mm 3.58 m/s, 330° 1137 W/m² -
1788421806 31.67° C 70% 1008.3 hPa 0 mm 1.79 m/s, 279° 377 W/m² -
1788421751 31.67° C 69% 1008.2 hPa 0 mm 1.79 m/s, 250° 803 W/m² -
1788421684 31.67° C 69% 1008.4 hPa 0 mm 3.58 m/s, 278° 425 W/m² -
1788421623 31.67° C 67% 1008.3 hPa 0 mm 4.92 m/s, 287° 1129 W/m² -
1788421562 31.67° C 68% 1008.3 hPa 0 mm 1.79 m/s, 191° 311 W/m² -
1788421501 31.67° C 67% 1008.2 hPa 0 mm 1.79 m/s, 251° 1118 W/m² -
1788421441 31.67° C 69% 1008.4 hPa 0 mm 3.13 m/s, 0° 1129 W/m² -
1788421379 31.67° C 69% 1008.4 hPa 0 mm 0.89 m/s, 227° 1133 W/m² -
1788421318 31.11° C 69% 1008.4 hPa 0 mm 1.79 m/s, 307° 1131 W/m² -
1788421257 31.11° C 70% 1008.3 hPa 0 mm 3.13 m/s, 226° 641 W/m² -
1788421196 31.11° C 69% 1008.5 hPa 0 mm 2.24 m/s, 272° 1135 W/m² -

* Rain latest hour (hover to see other rain measurements)
** Current wind speed in m/s (hover to see current wind gust speed)